Location: Arcones
(41.1182°N, 3.7238°W)
Time: 09:04:54
(UTC+00:00)

IRAS Rocket - Pass Details

Date: 22 March 2026
Orbit: 845 x 876 km, 100.1° (Epoch: 19 April)

Event Time Altitude Azimuth Distance (km) Brightness Sun altitude
Exits shadow 20:50:09 - 196° (SSW) 3,338 7.2 -26.4°
Reaches altitude 10° 20:52:36 10° 207° (SSW) 2,511 6.6 -26.8°
Maximum altitude 20:57:13 27° 264° (W) 1,624 6.1 -27.6°
Drops below altitude 10° 21:01:51 10° 320° (NW) 2,509 7.5 -28.3°
Sets 21:04:37 0° 333° (NNW) 3,445 8.2 -28.8°
